Regional Weather Roundup
Issued by NWS Green Bay, WI

Home | Current Version | Previous Version | Graphics & Text | Print | Product List | Glossary Off
Versions: 1 2 3 4 5 6 7 8 9 10 11 12 13 14 15 16 17 18 19 20 21 22 23 24 25 26 27 28 29 30 31 32 33 34 35 36 37 38 39 40 41 42 43 44 45 46 47 48 49 50

000
ASUS43 KGRB 201359
RWRGRB

NORTH-CENTRAL AND NORTHEAST WISCONSIN REGIONAL WEATHER ROUNDUP
NATIONAL WEATHER SERVICE GREEN BAY WI
900 AM CDT WED AUG 20 2014

WIZ005-009-010>012-018-019-201500-
NORTH CENTRAL WISCONSIN

CITY           SKY/WX    TMP DP  RH WIND       PRES   REMARKS
IRONWOOD       CLOUDY    57  57 100 W5        29.87R VSB 3/4
MANITOWISH WTR NOT AVBL
ARBOR VITAE    NOT AVBL
EAGLE RIVER    NOT AVBL
LAND O LAKES   NOT AVBL
RHINELANDER    CLOUDY    60  57  89 NW6       29.90R
PHILLIPS       CLOUDY    59  57  94 N3        29.88S
ANTIGO         NOT AVBL
TOMAHAWK       NOT AVBL
MERRILL        NOT AVBL
$$

WIZ013-073-201500-
NORTHEAST WISCONSIN

CITY           SKY/WX    TMP DP  RH WIND       PRES   REMARKS
IRON MOUNTAIN  CLOUDY    61  57  87 NW8       29.83S
MARINETTE      CLOUDY    63  57  82 N6        29.83R
$$

WIZ017-030-035>037-045-201500-
CENTRAL WISCONSIN

CITY           SKY/WX    TMP DP  RH WIND       PRES   REMARKS
MEDFORD        NOT AVBL
WAUSAU         CLOUDY    63  59  87 NW7       29.86R
MOSINEE        CLOUDY    61  61 100 NW3       29.89R
MARSHFIELD     CLOUDY    61  60  97 N3        29.88S FOG
WISC RAPIDS    CLOUDY    64  61  90 NW6       29.89R
STEVENS POINT  NOT AVBL
WAUPACA        CLOUDY    66  63  90 N5        29.88R
SHAWANO        CLOUDY    66  62  85 CALM      29.86R
CLINTONVILLE   NOT AVBL
$$

WIZ038-039-048-051-201500-
FOX VALLEY

CITY           SKY/WX    TMP DP  RH WIND       PRES   REMARKS
NWS GREEN BAY  PTSUNNY   68  62  81 NW7       29.85R
APPLETON       NOT AVBL
OSHKOSH        PTSUNNY   70  63  78 CALM      29.86R
FOND DU LAC    MOSUNNY   69  62  78 CALM      29.86R
$$

WIZ022-050-052-201500-
EAST CENTRAL WISCONSIN

CITY           SKY/WX    TMP DP  RH WIND       PRES   REMARKS
STURGEON BAY   CLOUDY    64  59  82 N8        29.84R
MANITOWOC      NOT AVBL
SHEBOYGAN      MOSUNNY   68  63  84 W6        29.85R
$$

LMZ563-521-522-541>543-201500-
LAKESHORE

STATION/POSITION TIME  TEMP    WIND        PRES    VSBY  WAVE
                       AIR SEA DIR/SP/G                  HT/PER
                 (UTC) (F)     (DEG/KT/KT) (MB)    (MI)  (FT/S)
SHEBOYGAN LKSHOR 1300   67 64  350/  2/  2 1010.1R
KEWAUNEE LKSHORE 1300   64     290/  1/  4 1009.2R
NORTHPORT PIER   1300   62     350/  9/ 12 1009.8R
N MID LAKE BUOY  1300   60 62  330/ 10/ 12 1008.7R         1/ 3
S GREEN BAY BUOY 1300   65     VRB  8      1010.9S
SISTER BAY LKSHO 1300   62     360/ 11/ 12   N/A
CHAMBERS ISLAND  1300   63     310/  6/  9 1010.2R
MENOMINEE LKSHOR 1300   63     310/  6/  9 1010.7R
$$


USA.gov is the U.S. government's official web portal to all federal, state and local government web resources and services.